ARIANE 40 R/B, 25261

Orbit data source: Space-Track

ARIANE 40 R/B, 25261 is space debris in SSO originally from a launch on Tue, 24 Mar 1998 UTC launched from the French Guiana (FRGUI). Debris objects in space refer to the collection of defunct objects orbiting the Earth. Examples of debris include non-operational satellites, rocket bodies, and fragments generated from explosions, collisions, or faulty payload assembly.

Loading next visibility...
ARIANE 40 R/B details
Identifier
25261, 1998-017B
Orbit
SSO
Last TLE update21 hours ago
Origin
Flag of FRArianespace (FR)
ManufacturerAe/LesM
MissionSpacecraft
Bus & MotorARIANE H10-3, Unknown motor
Mass1,820 kg wet, 1,820 kg dry
Launch date (UTC)
1998-03-24 (27 years ago)
Launch vehicleUnknown
Launch site
French Guiana (FRGUI)
Object type
Payload
Rocket body
Debris
Shape & HBRCyl, 11.04 m
Radar Cross Section25.199 m², Large (>1 m²)

Expand to show TLE details & history

TLE from 21 hours ago
0 ARIANE 40 R/B
1 25261U 98017B   24360.56932174  .00001214  00000-0  43675-3 0  9999
2 25261  98.8502   6.9525 0002441 275.6698  84.4208 14.35649704398684
Epoch: 2024-12-25T13:39Z
Definitive object data (Epoch: 2024-12-25T13:39:49.398Z)
Latitude-0.00004°
Longitude67.43549°
Altitude775.67 km
Speed7.466 km/s
True Right ascension00h 27m 48s
True Declination0° 00' 00"
Sunlit
Object was in daylight at TLE epoch
Visualization TLE readout
Latitude-28.48171°
Longitude-116.4854°
Altitude782.773 km
Speed7.462 km/s
Apparent Right ascension15h 34m 01s
Apparent Declination-65° 38' 51"
Sunlit
Object is in daylight
Visualization observer readout
Local Sidereal Time10:03:30
Azimuth150.833° SSE
Elevation-32.956°
Doppler factor1
Orbital elements
Apogee altitude771.798 km
Perigee altitude768.308 km
Semi-major axis7,148.19 km
Eccentricity0.0002441
Inclination98.8502°
RAAN6.9525°
Arg. of periapsis275.6698°
True anomaly84.44864°
Mean anomaly84.4208°
Eccentric anomaly84.43472°
Mean motion3.59128 °/min
BSTAR0.00043675
Orbital period100.24 mins
Loading maneuver chart data...
Loading historical data...
Loading historical data...
Loading historical data...
Loading historical data...
Loading historical data...
Loading historical data...
Loading historical data...

ARIANE 40 R/B Visibility forecast

Observer location: undefined°, undefined

Span
Click to sort rows by Start time (UTC) header in descending order
Start Az.
Max El. time (UTC)
Max El. Az.
Max El.
End time (UTC)
End Az.
8 mins2024-12-26 13:40:16.798Z11.415° NNE2024-12-26 13:43:16.798Z350.294° N44.045°2024-12-26 13:48:16.798Z198.026° SSW
4 mins2024-12-26 23:18:16.798Z83.396° E2024-12-26 23:20:16.798Z55.744° ENE15.872°2024-12-26 23:22:16.798Z30.527° NE
8 mins2024-12-27 00:55:16.798Z184.284° SSW2024-12-27 00:58:16.798Z249.652° W41.055°2024-12-27 01:03:16.798Z338.539° N
|